COSMOS 1275 DEB, 14408

Orbit data source: Space-Track

COSMOS 1275 DEB, 14408 is space debris in LEO originally from a launch on Thu, 04 Jun 1981 UTC launched from the Plesetsk Missile And Space Complex (PKMTR). Debris objects in space refer to the collection of defunct objects orbiting the Earth. Examples of debris include non-operational satellites, rocket bodies, and fragments generated from explosions, collisions, or faulty payload assembly.

Loading next visibility...
Identifier
14408, 1981-053JD
Orbit
LEO
Country
Flag of CISCIS
Related business
Manufacturer
Unknown
Mission
Spacecraft
Bus & Motor
Unknown
Mass
Unknown
Launch date (UTC)
1981-06-04 (45 years ago)
Launch vehicle
Unknown
Launch site
Plesetsk Missile And Space Complex (PKMTR)
Object type
Payload
Rocket body
Debris
Shape & HBR
Unknown shape, 0.1 m
Radar Cross Section
Small (<0.1 m²)

Expand to show TLE details & history
Last TLE update: 5 days ago

TLE from 5 days ago
0 COSMOS 1275 DEB
1 14408U 81053JD  25334.41185840  .00001122  00000-0  11524-2 0  9993
2 14408  82.9590 318.9890 0112280 221.7255 292.3054 13.72777084676187
Epoch: 2025-11-30T09:53Z
TLE epoch observation values (Epoch: 2025-11-30T09:53:04.565Z)
Latitude
26.98153°
Longitude
-82.39254°
Altitude
962.3 km
Speed
7.388 km/s
True Right ascension
09h 01m 36s
True Declination
26° 50' 48"
Sunlit
Object was in daylight at epoch
Visualization orbit readout
Latitude
Unknown
Longitude
Unknown
Altitude
Unknown
Speed
Unknown
Apparent Right ascension
Unknown
Apparent Declination
Unknown
Sunlit
N/A
Visualization observer readout
Local Sidereal Time
13:15:11
Azimuth
Unknown
Elevation
Unknown
Doppler factor
Unknown
Orbital elements
Apogee altitude
1,069.462 km
Perigee altitude
904.075 km
Semi-major axis
7,364.905 km
Eccentricity
0.01123
Inclination
82.959°
RAAN
318.989°
Arg. of periapsis
221.7255°
True anomaly
291.10875°
Mean anomaly
292.3054°
Eccentric anomaly
291.70771°
Mean motion
3.43394 °/min
Orbital period
104.84 mins
BSTAR
0.0011524
Loading maneuver chart data...
Computing Atmospheric mass density...

Documentation

Showing up to 5 results
|